Theta_e
334 335 337 337 336 336 336 336 335 333 333 333 331 330 329 329 329 328 328 326 325 326 325 323 324 325 325 326 325 327 328 328 329 328 328 329 330 330 330 328 327 327 327 328 329 328 328 328 328 328 327 326 325 326 326 326 328 327 327 328 327 327 329 329 329 329 328 327 328 327 328 328 327 328 328 327 326 325 324 325 325 323 320 321 324
333 335 337 337 335 336 335 334 333 332 333 332 331 329 328 328 327 326 326 326 325 325 324 325 326 326 325 325 325 327 329 329 329 327 326 328 329 329 328 327 327 326 326 327 328 327 327 327 328 327 326 325 325 326 325 326 328 328 327 326 326 328 330 328 329 329 328 328 327 327 328 328 328 328 327 326 325 324 323 322 323 322 319 318 320
333 336 337 336 336 335 335 334 332 330 331 331 331 329 328 327 326 325 325 325 324 324 325 326 326 324 325 325 325 328 329 329 327 324 325 328 328 328 328 328 328 327 327 327 327 327 327 327 327 327 326 325 325 325 325 326 326 327 326 325 326 328 329 327 329 329 328 328 327 327 328 328 328 328 327 326 325 325 324 323 323 323 322 321 320
334 337 336 336 335 335 335 334 332 329 330 330 329 328 327 327 325 324 323 324 323 324 325 325 325 325 326 326 326 326 328 328 324 321 323 326 328 328 328 327 327 328 328 327 327 327 327 327 327 326 325 324 325 325 325 325 325 326 326 326 326 326 326 326 328 328 328 328 327 327 327 327 327 327 326 325 324 324 324 323 323 323 323 323 322
334 337 336 335 335 334 335 334 331 329 329 329 327 325 326 326 325 323 322 322 323 324 324 323 325 325 325 327 327 326 327 325 322 321 324 324 324 327 328 328 327 327 328 327 328 328 326 326 327 326 325 325 325 325 325 325 325 325 325 325 326 325 326 327 327 328 328 328 327 327 327 327 326 325 325 324 324 323 323 323 323 323 323 322 323
335 337 336 335 334 334 334 333 331 329 329 328 325 324 324 324 324 322 321 321 322 323 321 322 324 322 322 327 326 325 324 322 321 324 327 326 323 323 324 325 325 325 326 325 326 328 327 327 327 326 326 326 326 324 324 325 326 325 324 326 326 327 328 328 327 327 327 326 326 326 325 326 325 324 323 323 323 322 322 322 322 323 322 322 322
336 337 336 336 335 334 334 333 331 329 329 328 325 324 323 322 322 321 320 321 322 322 319 322 324 319 319 322 320 319 319 321 325 326 327 327 324 320 320 322 322 321 320 319 319 323 325 325 325 325 325 324 326 325 323 324 325 324 325 325 326 327 328 328 327 326 325 325 326 326 325 325 325 324 323 322 322 322 321 321 322 322 322 321 321
335 337 336 336 334 334 334 334 332 330 329 329 326 324 322 322 321 320 321 321 321 321 320 322 321 314 313 317 319 321 320 322 326 326 327 326 322 321 323 324 322 320 319 319 317 318 320 323 323 324 324 324 324 325 324 324 324 325 325 325 325 325 326 327 326 325 324 325 326 326 325 325 325 324 323 322 321 321 321 321 321 321 320 319 320
333 334 335 334 333 333 333 333 333 331 329 328 326 324 323 322 321 321 322 321 321 320 320 319 314 311 315 320 324 327 325 323 324 325 324 321 320 324 325 325 323 321 321 323 321 320 321 323 324 324 324 324 323 324 325 325 325 326 327 327 325 325 325 327 327 326 325 325 325 326 324 324 325 324 323 322 321 321 320 320 319 317 317 317 320
331 332 333 333 333 332 332 332 332 330 329 329 327 325 324 322 321 322 322 321 322 320 317 313 312 315 320 324 326 327 324 319 317 319 317 316 321 325 325 325 323 320 322 324 323 322 320 321 324 325 324 324 324 324 324 325 326 326 327 328 327 325 324 325 326 326 326 325 325 325 323 323 325 324 323 322 321 320 318 315 313 313 315 317 318
332 333 334 333 332 331 330 331 331 329 329 329 329 326 324 322 321 322 322 321 321 319 315 314 317 321 322 324 324 320 316 313 311 311 310 311 319 324 324 322 321 320 320 323 324 322 319 319 322 325 324 324 325 325 323 324 325 325 326 326 327 327 325 324 325 325 325 326 326 325 323 323 324 324 323 322 321 318 314 312 313 314 316 317 316
333 334 335 334 333 332 330 330 330 329 328 329 329 327 325 323 321 322 322 320 320 319 318 319 323 325 323 322 320 314 311 311 309 308 308 308 314 319 319 318 321 321 320 321 322 320 318 319 321 323 324 325 325 323 321 322 324 325 325 324 324 325 324 323 323 325 325 325 325 325 323 323 324 323 322 322 320 318 315 312 313 315 316 316 316
333 333 335 335 334 333 332 331 331 330 329 328 328 326 324 323 322 322 321 320 320 321 321 322 323 324 322 318 315 312 312 312 311 312 312 312 314 316 317 319 321 321 319 318 319 318 319 321 321 321 322 323 323 321 320 322 324 323 323 322 322 322 323 323 324 325 324 324 323 323 323 321 321 322 321 322 321 318 316 313 312 314 315 314 314
331 331 333 334 334 334 333 333 332 331 330 329 328 326 325 323 322 321 320 321 322 322 323 324 323 323 320 317 314 313 313 313 315 318 317 316 318 319 321 322 321 321 320 319 320 321 320 320 320 319 320 321 322 322 322 324 323 321 321 320 320 321 322 324 324 324 323 322 322 321 321 318 317 319 320 321 320 318 316 314 312 312 312 311 311
332 330 332 334 335 334 334 334 333 332 331 330 328 327 326 323 323 321 320 322 323 323 325 325 323 322 320 318 316 315 315 315 317 320 319 318 319 321 323 323 322 323 322 320 322 323 321 320 319 318 319 321 322 323 324 325 324 322 322 321 322 323 323 323 322 321 319 320 320 319 318 316 315 317 319 319 320 318 316 314 312 311 311 310 309
333 332 334 335 334 334 334 334 334 333 332 331 329 328 327 323 322 322 320 321 323 325 326 325 321 320 321 319 316 315 315 316 316 317 317 316 319 322 323 323 323 324 322 319 321 323 322 320 317 316 320 322 323 323 323 323 323 323 322 322 323 324 323 322 320 317 316 316 317 317 317 316 315 316 318 317 317 317 315 313 313 312 312 310 308
334 334 334 333 333 333 334 335 334 333 332 331 330 328 326 324 323 322 322 324 326 326 325 323 320 320 322 321 319 316 316 317 317 315 314 315 318 321 322 323 323 323 322 318 318 319 319 317 317 318 320 322 322 323 322 322 321 321 321 322 323 323 323 322 318 316 315 315 315 316 315 314 314 315 316 315 314 314 313 313 313 313 312 310 308
334 334 333 332 334 334 335 334 333 333 332 331 330 328 328 327 326 325 325 327 329 327 325 324 322 323 324 324 322 320 319 319 319 315 313 314 316 318 320 321 322 321 320 316 313 314 315 315 318 319 320 322 322 322 322 321 319 318 318 318 319 320 320 319 317 315 314 313 312 312 312 312 313 315 315 315 314 313 313 314 315 313 311 310 310
334 334 334 334 335 335 335 334 333 332 331 328 329 330 330 330 329 329 329 329 327 325 324 323 326 327 327 325 323 321 321 321 319 315 313 313 314 316 316 317 319 317 315 314 312 313 313 314 317 319 319 319 320 321 321 320 317 316 315 314 313 312 312 312 312 311 310 310 309 309 310 312 313 315 315 314 314 314 314 316 316 314 313 312 312
334 334 334 334 334 334 333 333 332 331 330 327 328 331 330 330 331 331 330 329 326 325 323 322 327 329 327 325 324 322 322 322 320 317 314 311 311 312 312 311 313 313 311 311 311 310 309 308 312 316 317 316 317 317 318 316 314 313 311 308 307 306 306 308 310 311 311 311 311 309 309 311 312 314 314 314 315 315 315 315 316 316 315 314 314
333 333 334 333 333 332 330 330 330 330 330 329 329 329 328 328 330 330 330 328 325 325 324 321 327 329 325 324 324 322 322 322 320 318 312 308 309 311 310 308 309 310 308 309 309 309 308 306 307 311 314 314 313 312 312 311 309 308 306 306 306 307 307 309 311 312 312 313 314 313 311 311 312 313 313 314 314 314 314 315 315 316 315 315 315
331 332 332 331 330 329 328 329 330 330 331 330 329 329 328 328 329 329 328 326 324 326 325 323 326 326 323 323 323 322 322 321 321 318 310 309 312 314 313 309 307 307 308 310 311 309 309 308 307 308 309 310 310 309 309 307 307 307 308 309 311 311 311 313 313 313 313 314 314 314 314 313 313 313 313 314 314 314 315 315 315 316 315 315 315
329 330 331 329 327 327 327 328 329 330 330 329 329 328 328 328 328 327 326 325 324 325 326 325 325 324 324 324 323 322 322 322 321 316 310 311 316 317 313 309 306 306 308 312 312 310 310 311 310 309 308 308 309 310 309 308 310 312 312 313 313 313 314 315 314 313 312 312 313 312 312 313 313 314 314 314 315 315 315 315 316 315 315 315 315
327 328 329 328 326 326 327 327 328 329 329 328 328 327 327 327 326 326 326 326 326 326 327 326 325 325 326 325 324 324 323 322 319 313 310 312 316 317 313 308 306 305 308 312 313 312 312 312 312 311 310 309 311 311 309 309 312 314 313 314 313 313 313 313 312 311 310 311 311 310 310 312 313 314 314 314 314 315 315 315 316 315 315 315 315
326 326 327 327 326 325 326 326 326 328 328 328 327 326 326 327 326 327 327 327 328 328 327 328 327 327 327 325 325 325 323 322 318 312 311 313 317 318 312 306 305 306 310 315 314 313 313 314 313 313 312 312 312 311 309 309 312 313 313 313 312 312 312 311 311 311 311 310 310 310 310 310 311 313 314 314 314 315 315 315 315 315 315 314 314
325 324 325 325 324 324 324 324 325 327 327 327 327 327 327 327 327 328 327 327 328 328 328 328 328 328 327 326 325 324 323 322 320 317 317 318 320 318 309 305 307 309 313 316 314 313 315 315 315 314 314 313 312 311 310 309 309 311 312 312 312 311 311 311 311 311 311 311 311 310 310 309 310 311 312 313 313 314 315 315 315 315 314 314 314
324 324 324 324 324 324 324 324 324 326 327 327 326 326 326 327 327 327 327 327 327 327 327 327 328 328 328 327 325 323 322 322 321 322 322 321 322 320 312 309 312 314 315 316 315 314 315 315 315 315 315 315 312 311 311 310 308 309 310 311 311 312 311 312 313 313 313 312 312 311 311 312 312 312 312 313 314 314 314 315 315 316 315 314 314
317 318 319 319 320 321 323 324 323 324 325 326 326 326 327 326 326 327 327 326 326 325 324 325 327 327 327 327 325 323 323 322 322 322 323 322 322 322 318 316 317 317 316 316 315 314 314 315 315 315 316 315 313 311 311 310 309 308 308 309 310 311 311 311 313 314 314 313 313 314 314 315 315 315 315 315 316 315 315 315 315 316 315 315 315
311 311 311 312 313 315 318 320 322 323 324 324 325 325 326 326 326 326 325 326 326 325 325 326 327 326 327 327 326 325 324 324 323 323 323 322 322 322 322 320 319 319 319 318 317 316 315 315 314 314 314 314 312 312 311 309 309 309 309 309 310 311 310 311 312 313 313 313 313 315 316 316 316 316 316 316 316 317 316 316 315 315 315 315 315
309 308 308 308 308 309 311 314 316 318 319 321 321 322 323 323 324 324 325 325 325 325 325 324 325 325 325 325 325 325 325 325 324 324 323 323 322 322 322 320 319 320 320 319 319 318 317 316 315 314 314 314 313 313 312 312 311 310 310 310 309 310 310 310 310 311 312 313 313 315 316 316 316 316 316 316 317 317 317 317 316 316 316 316 316
308 307 307 307 307 308 308 309 311 311 312 314 316 318 319 321 321 322 322 323 323 323 323 322 322 323 323 324 324 324 324 324 324 323 323 323 323 322 321 320 319 320 320 320 319 319 318 318 317 317 315 315 315 314 314 314 313 313 312 311 310 310 310 310 311 312 313 314 315 316 316 316 317 316 316 317 317 316 316 316 316 316 316 316 316
307 307 306 306 306 306 306 307 308 309 309 309 310 312 314 317 319 319 318 317 317 317 319 318 319 320 321 321 322 322 323 323 323 323 323 323 323 322 321 321 320 319 320 320 320 320 320 319 319 318 318 317 317 315 315 315 315 314 314 313 313 313 312 311 312 314 315 316 316 316 316 317 317 316 316 316 316 316 316 316 315 315 315 315 315
307 306 306 305 305 305 305 306 307 307 308 308 308 309 310 312 314 314 314 314 314 314 315 314 315 316 318 318 319 320 320 321 322 321 322 322 322 322 322 321 321 321 320 320 320 320 320 319 319 319 319 319 318 317 316 316 315 315 315 315 315 315 315 314 314 315 316 316 317 317 317 317 317 316 316 316 315 315 315 315 315 314 314 315 315
307 306 306 305 305 305 306 306 307 307 307 307 308 308 308 309 312 312 312 313 314 314 314 314 313 314 314 314 315 315 316 318 319 319 320 320 320 320 320 321 321 321 321 321 321 321 321 320 319 318 319 319 319 319 318 317 316 316 316 317 316 316 316 316 316 316 316 317 317 318 318 317 316 316 315 315 315 314 315 314 314 314 313 312 312
308 308 307 306 306 306 307 307 307 307 307 308 308 307 307 308 310 310 310 311 312 312 312 312 313 312 313 313 314 314 314 315 316 316 317 318 319 319 319 320 320 320 320 319 320 321 321 321 320 319 319 319 319 319 318 318 318 317 317 317 318 318 318 317 317 318 318 318 318 319 318 317 316 315 315 315 314 314 313 313 312 311 309 308 307
306 306 306 306 306 306 306 306 306 307 308 308 308 308 307 308 309 309 310 310 311 311 311 311 311 311 311 312 313 314 315 315 315 316 316 317 317 318 319 319 319 319 319 318 318 318 319 320 320 320 320 320 320 320 319 319 319 319 318 318 318 318 318 318 318 318 317 317 318 318 318 316 316 315 315 314 314 313 311 311 310 309 307 305 304
303 303 303 304 304 305 305 305 305 306 307 307 307 307 307 307 308 308 309 309 309 310 310 309 309 309 309 309 309 311 312 313 314 315 315 315 316 316 317 318 318 318 318 317 318 318 318 318 318 319 319 320 320 321 320 320 320 320 320 319 318 317 317 318 318 317 316 317 318 318 317 316 315 315 314 313 312 312 311 311 309 307 305 304 303
303 303 303 303 304 305 305 306 306 306 306 306 306 306 307 307 307 307 308 308 308 308 308 308 308 307 305 305 305 306 307 309 309 311 312 312 313 314 315 316 317 317 317 316 316 315 315 315 315 316 318 319 319 319 320 319 319 320 319 319 319 318 317 316 318 318 317 317 317 318 317 317 316 315 314 313 313 313 313 311 308 305 303 303 303
302 301 302 302 303 303 303 304 305 306 306 306 305 305 306 306 306 306 307 307 307 307 306 306 304 302 301 300 301 302 303 304 305 307 308 309 309 310 311 312 312 313 313 314 314 314 314 315 315 316 317 318 319 318 318 318 317 318 318 318 318 318 318 317 317 317 317 317 317 317 317 317 316 315 314 312 312 313 313 309 304 303 303 303 303
300 300 300 300 301 300 300 301 302 302 303 303 303 304 304 303 302 303 304 304 303 302 301 301 300 299 299 299 300 300 300 300 301 302 303 304 304 304 304 305 306 307 308 309 311 312 313 314 314 315 316 317 318 318 317 316 316 316 317 317 317 317 317 317 316 316 317 316 315 315 315 315 315 315 314 313 313 315 314 308 302 302 303 303 303
299 300 300 300 300 300 299 298 298 299 298 298 298 299 301 301 299 299 299 299 298 298 297 298 298 298 299 299 300 300 300 300 300 299 299 300 300 300 300 300 301 301 303 304 305 306 308 310 311 312 313 313 314 315 315 315 315 315 315 315 316 316 316 316 316 316 317 317 315 315 315 315 315 315 314 313 314 314 311 305 302 303 303 303 303
298 299 300 300 300 300 299 299 299 297 296 296 296 296 297 297 297 297 298 297 297 297 297 298 298 298 299 299 299 299 299 300 299 299 299 299 298 298 299 299 299 299 300 300 301 302 303 304 306 308 310 311 311 311 312 312 313 313 312 313 314 315 315 315 316 316 316 316 316 316 315 315 315 314 313 313 312 309 307 306 305 304 302 302 302
299 299 299 301 301 300 299 300 300 298 296 296 296 297 297 297 297 298 298 298 298 298 298 298 298 298 298 298 298 298 298 298 298 298 298 298 298 298 298 298 299 300 301 301 302 302 303 304 306 307 309 310 310 310 311 311 310 310 311 313 313 314 315 316 316 316 315 315 315 315 314 313 313 312 310 307 307 307 309 310 307 304 302 302 302
300 299 299 300 300 299 299 301 300 298 298 298 298 299 300 300 300 300 299 299 299 299 299 299 299 299 299 298 298 298 298 298 298 299 299 298 298 298 298 298 298 299 300 301 302 302 303 303 304 305 306 307 307 309 311 313 312 311 311 312 313 313 314 315 316 316 315 314 314 314 313 312 311 309 305 304 306 309 311 310 307 306 306 304 303
301 300 299 299 300 300 300 301 299 298 299 299 299 300 301 301 300 300 300 300 300 300 300 300 300 300 299 299 299 299 299 299 299 299 299 299 299 299 299 299 299 299 300 300 301 301 302 302 302 302 303 304 306 308 310 312 312 311 311 311 312 313 314 315 316 316 315 313 313 312 312 311 309 305 304 304 306 307 308 309 309 309 307 304 302
301 300 299 299 300 300 301 301 300 300 300 300 300 300 300 300 300 300 300 300 300 300 300 300 300 299 299 299 299 298 299 299 299 299 299 299 299 299 299 299 299 299 300 300 301 301 301 302 302 302 302 303 304 306 309 312 313 313 312 312 312 312 314 316 316 314 314 313 312 311 311 310 307 304 303 303 302 302 303 305 306 305 303 301 300
300 300 299 299 300 301 300 300 300 300 300 300 300 300 300 300 300 300 300 300 300 300 299 299 299 299 298 298 298 298 298 298 299 299 299 299 299 299 299 299 299 299 299 300 300 301 301 302 302 302 303 304 304 306 309 312 313 313 314 313 312 313 315 316 315 314 313 312 311 310 309 306 304 303 301 301 301 301 301 301 301 300 300 299 299
300 299 299 299 300 300 300 300 300 300 300 300 300 300 299 299 299 299 299 299 299 299 299 298 298 297 297 297 298 298 298 298 298 298 298 298 299 298 299 299 298 298 298 299 299 300 300 301 301 301 303 305 306 308 310 311 311 311 312 313 312 312 314 315 315 313 312 311 310 308 305 303 302 302 301 301 301 301 300 299 299 299 299 299 299
299 299 298 299 299 299 299 299 299 299 299 299 299 299 299 299 299 299 298 298 298 298 298 298 297 297 296 297 297 297 297 297 297 297 298 298 298 298 298 298 298 298 298 298 298 298 298 299 300 300 301 302 304 306 308 310 310 310 311 311 312 312 312 314 314 313 312 311 308 305 303 302 302 302 302 301 300 299 299 300 301 301 301 301 299
298 297 298 299 299 299 299 299 299 299 299 299 299 299 299 299 299 299 298 298 298 298 298 297 297 296 296 296 296 296 296 296 296 296 297 297 297 297 297 297 297 298 298 298 297 297 297 298 299 299 300 300 301 302 303 306 308 310 310 311 311 310 310 311 313 312 311 310 308 304 302 302 302 302 301 300 300 300 301 302 303 302 301 300 299
297 297 298 298 298 299 299 299 299 299 299 298 298 298 298 299 299 299 299 298 298 297 297 296 296 296 295 295 295 295 295 295 295 295 295 296 296 296 296 296 296 297 297 297 297 297 297 297 298 299 299 300 301 301 301 302 304 307 309 309 309 309 309 310 312 312 311 309 307 304 302 303 302 302 301 300 301 303 303 303 302 300 299 299 299
Wind_Speed
25 26 28 27 25 22 21 21 22 23 22 21 22 23 22 21 21 20 20 18 16 16 16 16 17 18 18 17 16 15 13 11 9 7 6 5 5 4 3 3 3 3 5 6 6 5 7 8 7 6 6 8 10 9 10 11 9 9 10 11 11 11 13 13 13 12 12 13 12 11 10 9 7 7 6 6 6 5 4 3 3 3 2 1 2
27 29 29 26 24 23 23 23 24 25 25 23 23 23 22 22 22 21 20 18 15 15 16 17 19 19 19 18 16 16 14 11 8 5 5 5 6 6 5 4 4 4 4 5 4 4 6 8 6 6 7 8 9 9 10 12 11 10 12 12 12 12 12 13 13 11 12 13 12 11 10 8 8 8 8 9 9 7 5 5 6 5 4 3 4
31 31 28 26 26 25 25 25 24 24 25 24 22 21 22 22 21 21 20 18 17 17 18 19 20 19 18 16 16 16 15 11 7 7 7 7 7 7 6 5 4 4 4 4 3 4 5 7 6 6 8 7 8 9 10 12 12 12 12 12 13 13 12 12 13 12 11 11 11 11 10 9 9 7 6 8 9 6 3 6 8 7 6 6 5
34 32 29 27 27 26 26 26 24 24 24 23 22 21 21 21 20 20 20 19 19 20 19 19 20 18 17 16 15 15 14 8 5 8 8 6 7 7 6 5 5 5 4 4 5 6 5 5 5 6 8 7 8 9 9 11 12 12 12 12 13 13 13 12 13 13 10 11 12 11 10 10 9 8 8 8 8 6 4 5 5 6 7 7 8
37 33 30 29 28 27 26 26 25 25 24 22 21 21 21 21 19 19 19 20 21 20 18 19 18 16 16 17 15 12 10 6 6 9 7 6 7 6 5 5 6 7 7 7 7 7 6 5 5 6 8 6 7 8 9 10 12 12 12 11 11 12 12 12 13 14 12 11 12 11 10 8 9 12 13 9 7 8 8 9 8 6 6 7 8
39 35 32 30 29 27 25 26 25 25 25 22 21 21 21 21 21 19 20 22 22 20 18 18 16 14 14 16 13 11 10 9 10 9 8 7 6 6 5 5 5 6 7 8 9 9 8 8 7 7 7 6 7 9 8 9 11 11 11 10 10 12 12 12 13 14 14 13 13 11 8 7 13 18 15 11 10 10 10 11 11 9 8 5 5
37 35 33 30 29 28 26 26 25 25 25 23 21 21 20 21 22 21 21 23 22 21 20 17 15 13 12 12 11 12 13 13 12 10 9 6 6 6 5 5 5 4 6 7 8 9 9 9 9 8 6 5 7 8 8 8 10 10 9 10 11 12 12 11 11 14 15 13 13 12 7 6 14 20 18 16 16 13 11 12 13 12 10 5 3
37 35 33 29 28 28 27 27 25 25 25 24 23 21 20 20 21 21 23 24 23 23 21 17 15 14 12 12 12 14 14 14 13 11 9 7 7 9 7 5 5 4 5 5 6 8 8 9 9 7 6 5 6 7 7 8 8 8 9 9 10 11 10 10 10 12 14 14 14 12 8 7 13 19 19 18 20 19 15 13 13 10 7 6 7
36 35 32 28 27 28 28 27 26 26 25 24 24 22 21 20 21 23 24 25 24 23 21 18 17 16 15 14 14 14 12 12 12 10 9 9 10 11 8 6 4 5 7 6 5 6 7 9 7 5 5 7 8 7 8 9 9 9 9 8 9 8 8 9 9 10 12 14 14 13 10 10 14 18 18 16 17 18 14 11 11 9 9 10 11
34 33 30 29 28 28 28 27 27 27 25 24 24 23 22 21 22 25 25 24 23 22 21 20 19 17 16 15 14 13 11 10 10 9 10 12 12 12 11 7 4 5 7 6 5 4 6 9 9 6 5 7 9 7 9 11 10 9 9 9 8 7 7 8 8 9 10 12 14 14 13 15 18 19 19 16 14 13 12 11 11 13 16 16 13
33 31 29 28 28 28 27 28 29 28 27 26 26 25 24 23 23 25 25 24 23 21 21 21 20 17 16 16 14 12 10 10 10 9 10 12 13 12 11 8 5 6 7 7 5 2 3 9 10 9 7 9 11 8 7 10 11 9 10 11 9 8 8 8 9 9 9 12 14 13 13 16 18 19 20 18 15 14 16 16 16 16 17 16 14
34 32 30 29 30 29 28 29 30 30 29 29 29 28 26 25 24 26 26 24 22 21 21 21 20 19 17 16 14 12 11 10 10 11 10 11 12 11 9 7 6 6 7 8 7 4 4 7 8 9 9 10 11 9 6 9 12 10 11 11 10 10 9 9 9 8 9 11 13 12 11 13 14 15 19 19 15 15 18 19 18 16 14 14 15
33 31 30 30 31 30 29 31 33 32 31 31 31 29 27 26 25 26 26 24 23 22 23 22 21 19 17 16 15 13 11 11 11 11 10 10 10 9 8 5 5 5 5 6 6 7 8 7 6 7 9 9 8 7 7 10 10 9 10 10 10 10 10 10 10 11 13 15 15 13 13 12 10 12 18 18 16 16 18 19 19 17 16 17 16
33 31 30 30 30 30 29 31 32 32 31 31 30 29 28 26 26 26 26 25 24 24 24 23 21 19 16 15 15 13 12 11 11 10 9 8 8 8 8 5 5 5 3 6 8 10 10 9 7 6 7 8 6 6 9 10 8 9 9 9 10 12 13 14 16 16 16 16 15 14 14 13 10 10 15 18 19 20 19 18 19 20 20 20 18
31 30 30 30 30 29 27 27 28 30 30 30 28 27 27 26 26 27 27 27 26 25 25 23 20 18 15 15 15 13 12 12 12 10 8 8 9 9 8 6 7 7 4 6 10 9 9 8 6 6 8 10 11 10 10 10 10 11 11 12 14 16 18 19 19 17 16 15 14 14 15 14 12 13 15 16 18 21 18 15 18 23 22 19 16
28 29 28 28 27 25 24 24 23 24 26 27 26 26 26 26 27 28 28 28 26 25 25 22 19 16 14 15 15 14 13 11 11 10 8 9 10 10 8 8 9 8 5 5 9 9 9 7 5 8 13 13 12 12 12 11 12 12 13 15 17 17 19 20 19 16 16 16 16 16 15 15 14 14 15 15 16 19 17 14 15 19 22 20 17
26 25 24 24 23 22 23 22 21 22 23 24 25 26 26 28 29 27 27 28 26 25 23 19 16 15 14 14 14 13 12 9 8 8 7 8 9 8 8 9 8 7 5 5 8 9 8 8 7 11 16 14 12 13 12 10 11 13 14 15 17 16 17 18 18 16 16 16 17 16 16 15 14 15 17 20 21 20 17 14 11 15 22 23 20
24 22 22 21 21 21 20 20 21 22 21 21 22 25 26 28 29 28 28 26 23 23 22 19 16 15 14 14 13 12 10 8 7 7 6 7 7 6 7 8 7 6 5 4 7 9 8 8 10 13 16 15 13 14 12 10 12 14 14 14 15 16 17 18 17 16 16 15 15 16 17 16 15 17 20 19 19 18 15 10 9 15 21 19 17
24 23 23 22 21 19 18 18 21 21 21 21 22 23 25 27 27 28 28 23 21 22 22 19 16 15 15 15 13 12 10 7 7 6 5 6 6 5 4 6 6 5 4 5 7 8 8 8 10 13 14 14 14 14 12 11 13 14 12 12 13 15 17 19 18 16 15 13 13 16 18 18 16 16 17 16 15 16 13 8 8 14 17 14 12
23 24 23 22 20 17 16 18 19 20 19 22 25 23 22 25 26 26 27 23 21 21 20 17 17 17 17 16 15 13 10 7 7 6 5 6 6 4 2 3 4 2 3 6 6 6 6 6 9 12 13 13 13 13 11 12 13 13 11 11 12 14 17 18 17 15 14 14 16 16 17 18 16 15 16 15 14 12 9 6 7 11 12 11 10
23 23 22 21 19 16 15 15 14 14 14 19 23 20 18 21 22 22 23 23 21 20 18 15 16 17 16 15 15 13 9 8 7 5 6 7 6 3 1 1 2 2 4 6 5 5 5 5 8 11 13 13 12 11 11 12 13 12 12 13 15 16 17 17 15 15 17 18 18 18 17 17 17 16 16 14 12 9 6 5 6 9 11 11 8
20 20 19 19 17 16 15 14 15 14 14 17 18 17 18 18 17 18 20 21 21 20 18 17 17 16 14 13 13 11 9 8 7 6 7 8 5 2 1 2 2 4 7 7 6 5 5 6 8 10 11 12 12 12 13 13 14 14 15 17 18 18 18 17 15 16 18 18 17 16 17 18 18 16 15 13 10 8 7 6 7 8 9 8 6
16 17 17 17 17 16 15 13 15 17 16 16 16 17 20 18 16 17 16 17 18 18 18 17 15 13 12 13 11 8 8 8 7 8 9 8 4 2 1 1 2 6 8 8 6 5 7 7 6 7 9 12 13 14 14 15 17 16 16 17 17 18 18 17 15 15 16 16 14 13 14 16 16 15 14 12 8 7 7 7 7 6 6 6 4
13 13 16 17 17 19 18 13 17 21 19 19 20 21 22 18 15 15 14 15 16 16 15 14 13 13 13 12 10 7 8 9 8 9 10 7 3 2 2 2 3 6 9 9 7 7 8 6 4 6 9 12 14 13 14 17 19 17 15 15 15 17 18 16 14 13 13 14 12 11 10 12 13 12 13 13 9 9 10 9 8 6 4 4 4
10 9 13 15 16 17 16 12 15 22 22 21 22 23 22 19 17 16 15 15 14 11 11 12 13 14 14 12 10 8 8 9 9 9 9 7 4 3 4 4 6 8 10 10 8 8 9 7 5 6 8 11 12 11 12 16 19 17 16 15 14 15 15 14 12 11 10 10 11 10 10 10 12 12 13 14 11 10 10 8 8 8 6 6 6
7 7 9 11 13 14 9 6 12 20 22 21 21 21 20 19 17 16 15 15 14 12 11 10 12 14 15 14 12 9 8 8 8 8 8 6 4 4 6 7 8 9 10 9 8 9 11 10 7 7 7 8 9 9 10 14 17 17 16 15 14 14 13 12 10 10 9 9 8 9 9 9 11 11 12 13 12 12 12 8 8 9 7 7 7
9 7 8 9 10 11 8 7 9 16 20 21 21 21 21 19 17 15 15 15 16 14 10 9 10 12 13 14 13 12 10 8 7 7 6 4 3 5 8 9 8 9 9 8 8 9 11 12 11 10 9 8 8 8 10 12 15 16 16 15 14 14 14 13 11 10 9 8 7 8 8 9 10 11 12 13 13 12 13 11 8 8 8 8 8
20 17 15 15 14 12 11 10 8 11 16 19 20 20 19 18 18 16 14 13 13 12 10 9 10 12 13 15 15 14 12 10 10 10 8 6 4 5 8 10 9 8 9 9 7 8 11 11 11 11 10 10 8 8 10 11 13 14 15 15 15 14 14 15 14 12 11 10 9 9 9 9 9 11 12 12 12 11 13 14 12 9 8 9 10
27 27 26 26 25 22 20 18 14 13 14 15 16 16 16 18 17 15 14 14 14 13 11 10 9 10 13 14 14 14 13 13 13 13 12 10 9 8 8 10 12 9 10 11 9 8 10 10 9 10 10 9 8 7 9 10 11 13 14 14 15 14 15 16 16 16 14 13 13 12 11 11 10 11 11 11 12 12 13 15 15 13 11 11 12
27 28 28 28 29 29 28 26 24 22 21 19 18 15 14 15 15 14 14 14 14 14 13 10 7 7 9 10 10 10 11 13 13 14 14 12 11 11 9 11 14 10 8 11 10 8 9 10 9 10 10 10 9 9 9 9 10 12 13 14 16 16 16 17 17 17 17 17 16 15 14 13 13 13 13 12 12 13 13 15 16 16 15 14 13
24 25 26 26 27 28 28 29 28 29 29 27 25 21 17 15 13 13 13 13 13 12 11 10 8 7 6 5 6 6 7 9 10 10 11 11 11 11 10 12 15 14 10 11 12 11 12 11 10 10 11 12 12 12 12 12 12 12 13 15 17 18 18 19 19 19 20 19 19 18 17 16 16 15 15 14 14 13 14 15 15 16 16 16 16
22 22 22 24 25 25 25 26 26 27 29 29 27 25 22 20 19 18 17 18 20 19 18 17 15 11 7 6 5 5 6 8 8 7 7 8 9 10 11 12 14 17 16 14 14 14 15 16 14 13 13 14 14 14 15 16 15 15 16 17 19 20 20 20 21 21 21 22 21 20 20 20 19 18 17 16 16 16 16 17 17 17 18 18 18
22 21 20 20 21 22 23 23 24 25 25 25 25 26 25 24 25 24 22 20 21 22 23 22 21 18 14 13 10 7 6 6 5 4 5 5 4 5 8 9 11 14 16 17 17 17 17 18 18 17 17 18 17 16 17 18 19 19 20 21 22 23 22 21 22 22 23 24 24 23 23 23 21 20 19 18 18 19 20 20 19 18 18 19 20
17 17 17 17 18 19 19 20 21 21 20 20 22 23 24 25 26 25 23 20 19 19 19 19 19 19 18 17 15 12 10 9 7 5 2 1 2 3 4 5 6 8 10 13 15 17 18 20 20 20 20 21 21 20 19 20 21 22 23 24 24 26 26 25 25 24 24 26 27 26 26 24 22 21 21 21 21 21 22 22 21 20 20 20 20
11 9 10 11 13 13 15 16 17 16 16 16 18 19 20 22 24 23 21 20 18 17 16 15 14 14 14 15 14 12 10 9 9 8 6 4 2 2 3 4 6 7 9 10 11 13 15 17 20 22 22 23 23 23 23 23 24 25 26 26 27 28 29 29 29 28 27 28 29 28 26 25 24 23 23 23 23 23 22 23 23 22 20 19 18
11 10 10 10 10 11 12 12 12 12 12 12 13 14 15 17 19 20 19 16 13 12 12 11 10 9 9 8 8 8 7 6 4 3 3 3 2 2 2 3 4 6 8 10 11 12 13 13 15 18 21 24 25 25 25 26 27 28 28 29 30 32 32 33 33 32 31 30 30 28 28 28 26 25 24 24 24 23 22 24 24 22 19 17 16
12 10 10 10 9 9 9 9 9 9 8 8 8 9 9 10 12 13 14 12 8 7 7 6 4 4 4 3 2 2 3 4 4 5 6 6 6 6 6 7 7 6 7 10 12 13 14 14 14 15 17 20 22 23 24 25 27 29 29 30 32 33 34 35 35 35 34 33 31 30 30 30 26 24 23 23 24 25 25 25 26 23 19 16 14
9 7 6 6 4 4 4 4 4 4 4 5 5 5 4 4 5 5 5 5 4 3 2 1 1 3 3 3 3 3 3 4 5 7 8 10 10 11 11 11 11 11 12 13 15 16 16 17 17 17 17 18 19 19 19 21 24 26 28 30 31 32 33 35 36 36 35 34 33 32 33 32 28 26 26 24 26 28 28 26 25 23 19 16 14
8 7 7 6 5 5 4 3 3 2 2 3 4 4 3 2 3 2 1 1 2 3 4 5 6 6 6 6 6 6 7 7 8 10 11 12 12 13 14 14 15 16 16 16 17 17 18 18 19 19 20 20 20 19 18 19 20 22 24 26 27 29 31 33 34 35 35 35 34 33 33 33 32 33 33 30 29 30 27 24 23 21 18 15 15
9 9 9 8 8 8 9 8 7 5 3 3 3 3 3 2 3 3 4 5 5 6 7 8 9 10 11 11 11 11 11 11 12 13 14 15 16 17 18 18 18 19 19 20 19 19 19 19 19 21 22 23 23 22 21 21 21 21 22 23 24 25 27 29 31 32 34 36 36 37 37 36 35 37 35 30 28 29 26 23 22 19 17 16 16
9 9 8 8 8 8 8 7 7 6 5 4 4 3 2 1 2 3 5 7 8 9 9 10 11 12 13 14 14 15 16 16 17 17 18 19 20 21 22 22 22 22 22 22 23 23 24 23 22 23 24 26 26 25 25 24 24 24 24 24 24 25 25 27 28 30 33 36 37 39 40 38 36 36 32 27 26 27 26 24 21 18 16 16 15
8 7 6 6 4 5 5 5 4 4 4 3 3 2 2 1 1 3 5 7 9 10 10 11 13 14 14 15 16 17 18 19 20 21 22 23 23 23 23 23 23 23 23 23 23 24 25 25 24 24 25 28 28 27 26 27 27 28 27 25 24 24 24 25 26 28 31 34 36 36 35 32 31 30 26 24 25 25 25 24 20 17 16 15 14
6 6 8 5 1 2 2 2 2 4 4 3 2 2 2 1 2 3 5 7 8 10 11 13 14 14 15 16 17 18 18 19 20 21 22 24 25 25 25 24 23 23 22 22 21 21 22 24 24 24 25 27 28 26 25 26 27 28 26 23 23 23 23 24 26 27 29 31 32 30 26 24 24 23 20 20 22 24 25 23 20 17 15 14 13
2 3 6 5 0 2 1 1 4 5 5 5 5 5 5 5 5 7 8 9 10 11 12 14 15 16 16 16 17 17 17 18 18 19 20 22 23 24 25 24 24 23 23 22 21 19 20 22 23 24 25 26 28 28 26 25 25 26 25 23 22 23 24 24 24 26 27 28 27 25 23 24 23 21 19 20 23 24 23 21 19 17 15 14 14
2 1 3 4 2 1 1 3 5 5 6 6 7 8 8 7 5 6 6 6 7 9 11 13 16 17 18 18 18 18 17 17 18 18 19 20 21 20 20 19 19 20 21 21 20 19 19 20 22 23 23 24 27 28 28 29 27 26 26 26 25 24 23 24 24 25 26 26 24 23 24 25 24 22 22 23 23 23 21 20 19 17 15 14 15
2 2 2 5 4 2 4 2 2 4 6 7 8 8 6 2 3 4 4 5 8 11 14 16 18 19 20 20 20 19 19 18 18 18 18 17 17 16 16 16 17 18 19 20 20 20 20 20 21 22 22 23 25 25 26 30 32 30 28 28 27 24 22 22 23 24 25 25 24 24 24 25 27 26 24 22 21 20 20 20 19 17 16 16 15
2 3 1 5 4 2 2 3 3 3 3 1 2 2 2 3 6 9 11 12 14 15 17 18 19 20 20 20 18 18 17 17 17 16 15 15 14 15 15 16 17 19 20 21 22 23 22 21 21 21 19 19 21 22 24 28 31 30 28 27 25 24 24 24 24 25 26 26 25 24 25 26 27 25 23 22 22 21 20 20 19 18 16 15 13
2 1 1 3 3 3 4 4 3 3 3 4 4 4 4 6 8 10 12 14 15 17 18 19 20 20 18 17 16 15 16 16 15 15 15 15 16 16 16 17 17 19 21 23 25 26 27 25 25 23 20 15 14 16 22 28 32 30 27 26 25 24 25 27 28 27 28 28 26 26 28 29 27 26 26 25 24 23 22 20 18 16 13 11 11
2 1 2 1 3 4 4 4 2 2 3 2 4 6 8 8 9 10 12 13 15 16 18 20 21 20 16 14 15 15 15 15 16 16 17 17 17 18 19 20 19 18 19 21 23 26 28 28 29 28 24 20 17 16 18 25 30 30 27 24 23 23 24 26 30 31 31 31 31 32 33 32 31 30 29 27 26 24 22 19 15 12 9 10 12
3 2 1 0 2 3 4 4 2 2 2 2 4 5 5 6 8 9 12 14 16 18 20 21 21 19 16 14 15 16 16 17 18 19 19 19 19 18 19 20 21 21 20 20 22 24 25 26 28 29 26 23 21 20 19 19 21 24 25 23 20 19 19 23 29 34 35 34 35 37 36 34 33 31 30 30 28 22 17 14 12 12 12 14 15
1 1 0 1 3 3 3 4 4 3 3 4 3 3 5 5 7 10 14 16 18 19 20 20 18 16 14 14 14 15 16 17 18 19 20 21 22 23 22 21 21 21 20 19 20 22 22 21 22 25 25 21 18 20 20 19 18 19 21 23 21 19 19 23 29 34 37 39 41 41 39 36 35 35 33 30 24 17 14 14 15 15 17 18 17
Wind_Direction
148 140 138 147 158 160 158 157 152 146 142 137 136 140 142 142 144 143 143 145 144 140 133 132 133 129 127 124 121 121 121 121 118 108 103 108 121 136 148 148 151 182 200 198 203 208 204 198 197 209 214 196 185 187 188 181 179 187 187 181 181 177 172 175 172 175 180 170 165 164 159 161 159 138 125 123 102 71 42 40 78 84 86 102 124
148 140 143 151 154 155 155 155 150 144 143 143 143 146 149 149 149 146 141 142 144 141 135 132 131 127 125 124 124 128 128 124 115 105 101 103 111 117 123 133 138 160 173 174 188 197 196 191 193 201 195 188 189 191 189 182 180 192 192 186 188 186 184 187 182 178 180 175 170 164 154 147 142 132 129 122 101 81 68 78 79 70 85 108 107
144 139 145 149 152 155 155 154 148 145 146 147 148 149 150 150 150 148 145 144 143 142 140 140 138 132 128 125 126 131 135 133 119 117 122 110 104 107 113 117 117 137 140 135 152 148 168 184 184 188 188 190 199 198 188 179 182 196 198 193 194 193 195 194 187 185 183 177 171 165 157 147 143 140 138 125 112 115 113 95 81 64 72 83 88
141 139 145 149 154 157 156 154 151 150 152 154 155 154 153 152 150 149 148 146 144 145 145 146 144 135 128 127 128 131 138 143 111 101 108 105 101 102 101 103 105 112 110 110 122 119 137 165 163 167 176 188 195 192 186 177 180 192 193 193 199 201 201 193 186 188 189 186 178 168 163 159 154 146 137 126 118 127 143 136 114 77 77 85 92
144 142 147 152 157 161 160 157 157 160 161 161 161 161 158 156 156 154 152 150 148 146 145 149 148 138 133 136 142 145 144 137 99 94 98 99 102 101 98 100 101 102 102 103 114 117 122 136 145 159 170 185 189 186 185 178 178 187 189 193 202 206 204 194 188 189 191 196 192 175 164 171 165 147 135 131 135 137 140 151 153 126 103 104 103
147 145 149 155 159 162 164 163 164 166 164 160 156 159 160 159 161 160 158 157 151 146 148 151 151 145 142 145 157 164 151 130 113 112 113 102 93 90 91 93 94 100 100 96 106 115 118 126 131 147 168 181 183 186 186 182 185 191 197 201 204 206 202 194 192 194 193 195 197 186 172 178 168 151 136 128 137 146 145 145 144 133 121 116 105
145 145 150 157 162 163 166 167 168 168 165 161 157 159 162 163 165 165 164 162 156 154 156 158 160 157 152 154 159 157 147 134 126 131 134 119 87 80 82 80 77 92 105 104 113 118 120 123 118 116 131 155 177 187 184 188 198 200 206 208 204 204 198 191 192 195 194 189 189 189 179 171 167 158 147 138 135 136 139 138 136 136 130 118 117
146 148 154 160 164 165 165 166 167 168 168 168 166 167 167 165 167 167 165 164 163 162 162 167 172 164 156 157 151 146 146 142 143 150 156 153 113 99 105 101 80 80 98 100 101 111 118 118 118 117 118 126 151 174 176 177 188 193 198 198 198 200 190 187 193 195 195 189 183 185 182 169 169 164 158 152 142 134 133 136 139 145 138 125 131
151 155 160 164 164 164 166 166 166 169 171 173 171 171 172 168 167 167 166 165 164 164 166 171 171 162 158 158 152 151 157 157 162 168 165 157 132 123 137 140 119 106 108 105 99 114 128 128 135 142 140 141 139 152 169 166 172 185 193 194 193 191 179 180 188 186 188 191 189 187 181 172 169 166 163 163 155 146 147 152 152 142 116 116 127
157 161 163 165 163 164 171 171 170 170 173 176 174 174 176 172 169 171 169 165 164 166 169 169 166 164 162 160 159 166 174 171 173 176 163 153 144 147 164 173 173 145 133 135 131 126 132 142 160 161 139 151 150 156 178 180 180 183 192 201 195 186 180 179 182 176 171 182 190 188 181 172 166 165 166 168 165 158 156 156 151 134 118 119 127
159 160 161 164 165 169 175 176 175 175 176 177 177 179 181 178 175 176 174 168 168 169 167 163 164 168 167 164 168 171 170 163 161 166 165 161 160 167 182 193 190 170 160 160 162 167 131 142 164 168 143 150 165 178 195 195 195 195 198 198 189 187 188 182 182 176 161 168 177 178 177 172 166 165 166 168 163 151 144 140 138 132 126 128 130
160 159 161 162 165 172 179 183 182 179 179 179 179 181 184 183 181 180 178 173 172 169 164 163 166 172 172 168 172 171 160 151 151 156 157 159 168 177 190 193 183 180 181 181 188 197 162 143 157 170 164 160 175 199 204 187 188 192 191 183 180 185 182 179 179 165 147 153 161 160 162 167 168 166 165 168 170 153 138 136 139 138 138 143 142
161 162 165 166 171 177 181 186 185 181 181 181 180 181 183 186 186 185 182 176 174 171 166 168 170 174 176 168 167 166 157 151 149 145 138 143 157 166 173 182 193 201 187 173 172 166 165 168 162 169 181 180 189 204 187 175 175 172 170 171 175 173 165 162 157 142 135 137 142 144 144 146 154 168 169 170 174 162 138 131 139 143 143 145 146
167 169 172 175 180 183 183 184 184 182 180 179 181 183 183 188 189 188 185 179 178 175 169 170 172 173 171 162 161 163 157 152 149 140 135 143 147 150 163 182 196 196 167 139 150 157 166 182 182 172 176 171 159 153 159 166 167 158 157 160 158 151 147 145 143 139 136 134 138 141 139 134 132 159 171 168 171 167 145 131 140 147 147 144 144
170 175 177 181 183 183 182 182 182 181 179 179 183 186 187 191 191 190 187 184 182 176 169 169 173 172 166 162 164 164 157 151 150 151 151 150 147 151 170 191 190 192 193 158 159 167 175 186 193 169 150 139 127 127 142 152 154 151 150 150 148 148 149 148 145 144 142 143 150 150 148 145 134 143 160 164 172 172 156 138 142 147 151 153 151
174 178 178 179 178 176 177 177 177 178 179 182 185 189 192 192 191 190 189 188 183 175 170 172 174 172 168 167 168 166 161 153 152 158 157 149 149 160 181 198 199 206 223 195 180 185 189 196 196 155 143 139 134 139 143 143 148 149 147 149 150 151 154 153 150 149 147 152 160 162 163 156 138 138 144 142 152 161 157 154 156 155 158 160 155
174 177 175 173 171 173 174 174 174 174 179 185 188 192 195 193 192 191 190 188 180 172 173 177 179 178 175 169 167 168 165 157 154 159 159 155 158 174 197 208 215 223 236 219 197 195 193 190 177 153 147 146 145 150 154 153 154 151 150 151 151 152 156 157 158 157 156 160 165 169 168 155 137 133 134 131 135 144 151 158 166 167 165 160 151
169 170 170 170 171 174 173 175 180 180 181 187 194 198 197 194 193 192 190 184 173 170 175 182 187 184 177 170 171 173 168 159 156 155 159 166 170 184 210 222 228 239 243 203 176 177 180 178 169 157 156 159 159 161 169 173 162 153 153 153 149 151 155 157 161 164 165 167 168 168 164 150 138 136 138 139 141 145 151 151 152 166 170 167 158
165 167 168 171 176 179 177 180 187 189 189 193 199 200 198 197 196 194 190 180 171 173 176 182 188 186 177 174 178 180 173 165 157 154 162 174 179 187 220 235 240 252 234 188 172 173 179 180 173 164 163 169 173 177 182 178 165 159 158 153 148 152 154 153 155 157 158 155 151 159 162 154 146 144 146 151 154 155 155 142 140 165 177 188 190
167 169 170 171 175 179 179 181 185 187 188 192 195 196 195 198 198 194 188 179 174 178 178 180 186 189 184 181 185 187 182 173 158 154 170 180 185 191 219 249 250 248 190 179 175 172 173 171 167 168 169 172 179 184 183 175 168 166 163 150 144 148 151 150 151 149 144 134 127 136 152 158 156 154 156 159 160 160 158 143 139 148 156 170 182
172 172 170 168 170 171 168 164 165 172 176 180 188 193 192 194 194 191 188 182 179 182 183 186 188 191 190 188 191 191 183 176 164 161 175 175 175 169 125 279 254 189 163 160 154 152 154 150 153 164 172 177 180 175 168 164 161 157 149 139 136 140 144 146 147 145 141 135 127 125 134 147 155 158 158 157 153 144 129 127 143 139 138 148 151
175 176 172 166 161 155 146 141 145 158 167 168 175 184 185 181 175 175 179 176 176 179 180 184 186 188 190 190 191 187 178 174 170 171 170 163 155 135 127 273 236 171 156 150 151 150 144 142 146 156 168 174 167 157 154 150 144 140 137 136 137 138 139 140 142 143 142 140 136 132 132 139 146 149 147 147 149 141 129 130 143 146 147 152 147
172 177 175 161 146 137 132 141 159 166 167 162 162 170 173 168 155 157 162 161 165 170 171 176 181 182 184 186 184 177 172 173 177 179 172 164 154 140 178 242 198 172 162 155 157 150 139 140 141 147 158 160 154 153 154 145 138 139 139 141 145 144 142 145 147 148 149 149 146 141 139 143 147 144 142 146 145 135 138 148 156 156 145 143 163
164 169 168 153 139 132 127 137 163 166 160 155 155 159 161 158 150 148 151 152 155 158 161 165 170 172 177 181 180 172 170 177 185 181 174 174 171 163 191 198 174 173 164 157 158 147 144 154 155 146 150 154 158 164 161 150 146 149 152 155 157 155 156 160 160 157 157 157 156 151 147 153 160 158 156 162 160 145 148 155 167 177 157 150 180
155 157 155 148 144 139 126 122 142 146 144 143 148 155 154 151 149 147 148 154 156 156 157 156 160 167 173 175 179 176 169 175 188 188 184 190 196 184 186 174 167 165 157 159 168 158 159 180 184 163 160 163 170 176 166 159 159 160 164 168 168 168 170 170 170 171 169 169 170 169 166 168 175 176 173 177 179 172 168 164 168 179 174 169 179
121 132 134 140 150 148 135 124 135 137 136 135 139 148 150 148 149 151 156 162 163 161 158 155 159 165 170 174 176 177 174 174 185 191 191 196 192 172 171 169 167 161 155 170 190 178 175 187 189 186 191 187 185 183 170 168 173 176 179 182 180 179 178 176 180 189 192 192 192 190 187 185 189 191 191 196 199 189 184 183 181 181 174 172 182
90 106 117 122 137 143 138 132 133 134 136 136 136 140 147 150 149 150 157 163 162 158 157 162 166 164 169 175 173 174 180 181 177 179 186 202 198 169 170 169 161 156 164 191 214 199 191 193 191 196 214 218 209 197 188 183 183 186 192 195 194 191 186 184 190 202 211 212 213 213 209 203 201 202 203 209 214 202 192 192 191 185 181 182 189
82 88 97 102 111 126 133 131 131 129 129 131 133 136 140 140 140 143 150 155 157 160 166 177 172 158 159 168 170 174 185 190 185 187 196 206 208 195 184 173 166 174 191 210 225 211 203 206 204 206 219 233 236 222 213 210 204 201 203 205 205 203 198 196 198 207 219 223 221 225 230 228 218 211 210 213 214 207 200 201 202 198 197 200 202
76 77 81 84 88 95 105 111 116 118 118 118 122 130 133 130 129 131 134 136 140 146 156 171 173 153 152 164 171 177 190 198 199 204 209 206 202 210 207 187 184 199 214 222 236 226 211 214 217 216 226 241 249 243 233 229 224 220 221 220 217 214 210 209 210 213 222 231 234 236 239 242 235 226 224 221 215 212 208 208 213 217 220 222 220
72 71 72 74 76 81 89 95 98 97 98 101 101 104 113 121 125 126 127 133 140 144 147 152 153 135 138 160 175 182 192 199 202 208 212 210 209 213 211 193 192 206 217 220 231 231 215 219 224 223 231 244 252 256 253 247 239 233 231 230 229 226 222 224 226 227 230 236 242 244 242 241 239 234 232 230 226 224 221 217 220 225 228 231 232
71 69 70 71 72 76 81 86 88 87 88 91 91 91 95 102 106 106 109 117 122 127 128 119 106 93 99 131 158 172 183 189 194 204 210 214 214 213 207 194 195 205 209 208 215 218 215 221 228 226 229 238 247 253 256 256 253 247 242 239 237 234 233 235 237 238 240 241 241 243 242 238 237 236 236 237 239 240 238 234 232 233 233 233 237
73 71 69 69 70 73 77 81 85 87 88 88 90 93 98 102 103 98 97 103 103 100 100 97 91 87 81 84 112 152 171 179 189 200 207 211 212 214 216 210 206 210 213 215 219 223 221 220 222 222 226 231 237 241 245 248 248 246 248 250 248 243 242 242 243 243 243 242 241 242 242 241 240 238 236 240 244 246 245 242 240 242 242 240 243
76 74 71 68 68 69 73 77 81 83 84 86 89 90 90 96 106 108 107 110 109 106 105 103 101 101 97 91 94 110 134 153 171 190 202 208 214 224 229 227 222 222 226 230 233 235 234 231 228 227 228 229 229 232 238 240 239 239 244 250 252 252 252 253 252 250 247 244 244 244 243 242 242 240 238 241 247 248 245 242 242 244 245 245 245
77 75 73 72 72 71 73 76 78 79 81 84 85 83 83 90 103 109 110 115 119 118 114 112 111 108 103 100 97 97 104 109 104 104 111 34 359 332 296 273 265 262 255 249 247 246 244 241 240 239 237 234 231 233 238 238 236 237 239 243 249 253 256 258 257 255 253 250 248 247 247 242 240 243 245 246 250 249 244 240 241 243 244 245 247
98 95 90 84 82 83 86 84 81 82 85 86 83 78 80 86 94 99 100 105 113 117 116 115 112 107 103 104 105 102 103 106 105 108 112 101 62 342 330 319 309 304 291 275 266 261 256 251 249 249 247 244 239 238 240 241 241 240 238 238 243 248 250 253 253 250 247 246 244 244 242 238 242 251 254 253 252 249 241 237 238 241 244 246 248
115 114 113 105 95 93 93 89 88 92 97 97 91 84 81 81 85 90 91 94 103 111 113 115 112 103 97 102 112 118 120 120 125 141 153 159 205 241 250 270 293 305 300 291 283 275 270 264 259 256 254 253 249 246 246 246 246 246 245 245 247 250 251 251 251 251 251 251 248 243 237 239 248 255 255 252 249 243 238 238 238 240 244 245 243
110 105 104 104 100 100 100 98 100 106 107 106 101 95 91 83 80 87 93 95 102 113 114 115 109 83 60 56 83 132 154 160 180 206 216 223 237 242 244 252 259 268 282 287 288 287 285 279 273 269 265 261 258 256 253 252 251 251 252 253 254 255 254 253 253 255 257 256 251 244 240 243 248 250 248 247 247 246 246 245 242 241 241 237 232
113 105 100 100 101 107 122 129 123 117 115 115 103 90 96 88 67 79 101 101 102 116 123 135 336 352 348 338 328 300 266 243 238 235 232 235 240 244 248 255 260 264 270 274 278 282 285 284 282 280 277 274 271 267 262 257 255 254 255 256 257 258 256 253 251 253 254 253 248 244 243 244 246 247 249 252 256 255 251 244 238 235 234 232 232
110 102 93 95 93 82 78 88 110 122 136 133 115 96 89 54 16 3 271 277 311 313 316 313 312 318 315 305 298 290 280 273 270 267 264 263 262 260 259 259 261 264 267 268 269 272 275 280 281 281 281 280 277 273 269 265 263 260 257 256 257 258 257 252 250 250 251 249 247 244 243 244 247 253 259 261 256 249 242 235 230 226 225 228 233
95 88 80 81 83 79 74 70 74 78 80 88 96 89 73 33 353 331 316 314 313 310 311 308 304 303 301 298 296 293 287 281 275 273 273 273 273 273 272 269 267 266 265 263 263 264 266 269 272 274 276 278 277 275 274 274 274 270 264 259 256 257 257 255 253 252 250 247 246 245 245 248 253 258 262 258 244 235 233 231 223 218 219 225 231
90 83 68 62 65 65 57 56 64 67 64 63 59 53 55 35 327 312 313 311 306 301 296 290 286 285 284 285 286 285 283 281 279 278 276 274 274 274 274 273 272 271 270 268 266 265 264 265 267 269 271 273 273 273 275 275 275 274 270 263 258 257 258 258 256 255 253 251 250 249 250 254 256 254 249 242 233 229 230 226 219 217 221 224 227
101 107 93 72 62 55 46 44 50 44 41 49 43 28 26 346 290 296 298 295 295 297 296 291 288 285 284 283 283 281 280 281 281 281 280 279 277 276 275 274 273 271 271 271 271 271 270 269 268 267 268 270 271 272 274 273 271 272 271 265 259 257 257 257 256 254 255 255 254 254 255 256 253 242 230 226 228 224 218 216 216 218 220 219 222
106 121 124 121 75 4 61 73 5 9 22 31 31 27 21 344 315 316 311 304 302 304 302 297 293 288 286 284 282 281 282 282 281 280 279 278 277 275 274 273 272 271 271 271 273 274 274 273 270 268 268 270 272 272 272 270 269 270 268 261 257 258 259 258 256 256 257 256 254 253 248 237 226 216 207 210 216 210 206 210 216 218 219 220 224
152 136 129 134 298 350 62 328 330 360 29 37 42 57 57 38 13 357 346 332 324 319 310 303 299 295 293 291 287 285 286 286 287 286 283 280 279 278 278 277 275 273 272 273 275 277 277 277 277 275 272 272 274 273 269 264 265 268 267 262 258 260 261 260 257 257 258 256 250 242 226 209 200 197 196 200 203 200 200 207 213 216 219 224 229
230 232 126 126 106 86 188 283 329 16 47 48 55 65 57 38 15 360 354 335 314 303 296 296 296 295 296 295 293 292 291 289 289 290 290 291 292 293 293 292 288 282 277 276 276 277 277 277 278 279 277 273 270 271 269 265 263 266 267 265 261 258 258 257 255 255 254 250 240 228 215 203 197 196 196 197 199 199 200 204 208 213 219 227 233
247 278 145 123 119 158 207 232 15 52 57 44 48 55 44 359 272 276 286 281 282 284 286 289 292 293 296 296 294 293 290 287 287 288 288 293 298 301 303 303 300 293 283 277 275 273 272 273 273 275 278 274 270 270 270 264 258 255 257 259 257 253 251 252 253 251 247 239 229 222 215 204 197 196 196 197 200 203 205 208 211 215 221 228 234
236 277 161 126 129 155 170 142 106 102 110 70 40 45 3 280 259 264 270 273 279 284 287 290 292 293 296 298 299 299 296 292 291 288 284 283 284 286 288 291 294 293 285 279 278 277 276 277 276 277 282 283 280 280 275 264 254 248 245 249 252 250 244 243 244 241 236 230 224 217 208 199 195 195 195 197 200 202 205 209 212 212 215 220 227
179 247 83 126 148 148 134 137 142 152 173 211 241 251 269 277 277 279 282 284 290 295 297 299 300 299 299 300 303 303 297 291 287 283 280 280 279 279 281 282 287 292 290 286 284 282 281 282 281 281 284 286 287 288 279 265 255 248 244 245 249 247 240 239 239 233 225 220 215 205 196 191 191 193 194 195 198 199 198 199 200 201 205 212 221
206 291 30 100 174 176 169 174 180 177 186 231 267 261 264 281 295 305 309 308 307 309 310 310 309 308 306 302 298 296 295 293 291 288 285 283 280 278 276 276 276 280 285 287 287 286 285 284 282 281 283 283 280 284 284 270 255 247 244 245 243 240 239 240 239 231 221 212 205 196 190 189 191 192 192 194 195 192 189 192 198 210 224 229 226
285 312 19 191 203 185 188 201 204 190 213 261 279 276 294 323 327 321 318 315 312 314 314 311 308 306 305 301 296 297 301 302 302 304 304 302 300 295 289 283 277 270 269 275 281 284 286 284 280 279 279 280 279 280 289 290 274 257 248 242 236 238 245 245 239 229 220 212 206 197 189 187 190 191 191 191 190 190 195 208 222 230 226 219 216
350 41 20 236 203 178 184 205 209 222 248 262 293 355 17 358 327 314 316 317 319 322 322 320 315 310 306 302 299 303 309 310 312 315 317 317 317 315 311 306 298 286 276 273 277 281 282 281 279 276 273 277 284 284 283 289 291 279 261 247 241 245 251 249 241 229 219 212 206 197 188 187 191 193 192 191 194 202 214 221 220 212 205 207 211